Regional Weather Roundup
Issued by NWS

Home | Current Version | Previous Version | Text Only | Print | Product List | Glossary On
Versions: 1 2 3 4 5 6 7 8 9 10 11 12 13 14 15 16 17 18 19 20 21 22 23 24 25 26 27 28 29 30 31 32 33 34 35 36 37 38 39 40 41 42 43 44 45 46 47 48 49 50
000
ASUS44 KEWX 291811
RWRTX
SOUTH TEXAS REGIONAL WEATHER ROUNDUP
NATIONAL WEATHER SERVICE AUSTIN/SAN ANTONIO TX
100 PM CDT SUN MAR 29 2015

NOTE: "FAIR" INDICATED FEW OR NO CLOUDS BELOW 12,000 FEET WITH NO
SIGNIFICANT WEATHER AND/OR OBSTRUCTIONS TO VISIBILITY.

* - THESE STATIONS ARE NOT NWS OR FAA STATIONS...AND ARE NOT SUBJECT
    TO NWS AND FAA QUALITY CONTROL.

TXZ171-172-183>190-291900-
TEXAS HILL COUNTRY AND EDWARDS PLATEAU

CITY           SKY/WX    TMP DP  RH WIND       PRES   REMARKS
JUNCTION       SUNNY     84  48  28 SW15G23   30.05F
6HR MIN TEMP:  49; 6HR MAX TEMP:  84;

*LLANO         SUNNY     82  55  39 S10G24    30.09F
BURNET         SUNNY     78  55  44 S16G23    30.10F
6HR MIN TEMP:  54; 6HR MAX TEMP:  79;

*HORSESHOE BAY SUNNY     81  55  40 S10G21    30.08F
6HR MIN TEMP:  60; 6HR MAX TEMP:  81;

*KERRVILLE     MOSUNNY   76  57  51 S16       30.12F
6HR MIN TEMP:  51; 6HR MAX TEMP:  76;

*FREDERICKSBRG SUNNY     76  53  44 SW17      30.11S
6HR MIN TEMP:  51; 6HR MAX TEMP:  76;

*ROCKSPRINGS   SUNNY     79  54  41 S9        30.14R
*BOERNE STAGE  SUNNY     75  52  43 S16G22    30.13F
*CASTROVILLE   SUNNY     77  56  47 S14G20    30.13F
HONDO          SUNNY     77  58  51 S12       30.13F
6HR MIN TEMP:  46; 6HR MAX TEMP:  78;

*UVALDE        SUNNY     75  58  55 SE7       30.11F
6HR MIN TEMP:  50; 6HR MAX TEMP:  76;

DEL RIO        SUNNY     76  55  48 S8        30.06F
6HR MIN TEMP:  57; 6HR MAX TEMP:  76;

LAUGHLIN AFB   SUNNY     76  58  53 SE8       30.07F
6HR MIN TEMP:  54; 6HR MAX TEMP:  76;

CARRIZO SPRGS  SUNNY     79  57  47 S12       30.07F
$$

TXZ173-191>194-202-209-217>225-228-291900-
CENTRAL AND SOUTH CENTRAL TEXAS

CITY           SKY/WX    TMP DP  RH WIND       PRES   REMARKS
GEORGETOWN     SUNNY     79  57  47 S23G31    30.08F
AUSTIN/BERGSTM SUNNY     77  60  55 S20G26    30.10F
6HR MIN TEMP:  56; 6HR MAX TEMP:  77;

AUSTIN/MABRY   SUNNY     79  59  50 S10G21    30.11F
6HR MIN TEMP:  57; 6HR MAX TEMP:  79;

*AUSTIN/EXEC     N/A     77  57  50 S16G24    30.11S
*LAGO VISTA    SUNNY     79  55  43 S18G26    30.10F
6HR MIN TEMP:  59; 6HR MAX TEMP:  79;

SAN MARCOS     SUNNY     79  57  47 S22G28    30.12F
NEW BRAUNFELS  SUNNY     80  57  45 S16G28    30.11F
6HR MIN TEMP:  50; 6HR MAX TEMP:  80;

RANDOLPH AFB   SUNNY     76  58  52 S17G24    30.12F
6HR MIN TEMP:  52; 6HR MAX TEMP:  76;

PT SAN ANTONIO SUNNY     76  60  56 S13       30.11F
6HR MIN TEMP:  50; 6HR MAX TEMP:  76;

SAN ANTONIO    SUNNY     76  57  51 S13       30.12F
6HR MIN TEMP:  56; 6HR MAX TEMP:  77;

STINSON FIELD  SUNNY     77  58  51 S14G20    30.11F
6HR MIN TEMP:  50; 6HR MAX TEMP:  78;

*PLEASANTON    SUNNY     78  58  50 S14G21    30.12F
*LA GRANGE     SUNNY     78  61  55 S15G24    30.12S
6HR MIN TEMP:  54; 6HR MAX TEMP:  78;

*GIDDINGS      SUNNY     76  58  52 S15G23    30.16F
6HR MIN TEMP:  55; 6HR MAX TEMP:  76;

*GONZALES      SUNNY     77  63  60 S17G25    30.12F
6HR MIN TEMP:  58; 6HR MAX TEMP:  78;

$$

TXZ163>164-176>182-195>201-210>213-226-227-235-291900-
SOUTHEAST TEXAS

CITY           SKY/WX    TMP DP  RH WIND       PRES   REMARKS
COLLEGE STN    SUNNY     78  54  43 S16G25    30.13F
6HR MIN TEMP:  57; 6HR MAX TEMP:  78;

*BRYAN         SUNNY     77  58  50 S16       30.14F
6HR MIN TEMP:  54; 6HR MAX TEMP:  77;

*CALDWELL      SUNNY     75  61  60 S16G23    30.15S
*CROCKETT      SUNNY     81  61  50 S14       30.15F
*BRENHAM       SUNNY     79  59  49 S16G22    30.14F
6HR MIN TEMP:  59; 6HR MAX TEMP:  79;

HUNTSVILLE     SUNNY     77  58  51 S16G25    30.15F
6HR MIN TEMP:  61; 6HR MAX TEMP:  77;

CONROE         MOSUNNY   76  58  53 S16G24    30.16F
6HR MIN TEMP:  57; 6HR MAX TEMP:  76;

HOUSTON BUSH   MOSUNNY   78  61  55 S15G22    30.17S
6HR MIN TEMP:  59; 6HR MAX TEMP:  79;

HOUSTON HOBBY  MOSUNNY   78  62  57 S16       30.17F
6HR MIN TEMP:  61; 6HR MAX TEMP:  78;

*HOUSTON SW AP PTSUNNY   78  64  62 S12G17    30.18F
6HR MIN TEMP:  57; 6HR MAX TEMP:  78;

PEARLAND       MOSUNNY   78  62  57 S18G24    30.20S
6HR MIN TEMP:  62; 6HR MAX TEMP:  78;

HOUSTON HOOKS  MOSUNNY   78  60  53 S15G25    30.16F
6HR MIN TEMP:  62; 6HR MAX TEMP:  79;

ELLINGTON FLD  PTSUNNY   79  64  61 S18G25    30.20S
SUGAR LAND     MOSUNNY   78  61  55 S18G24    30.16F
6HR MIN TEMP:  55; 6HR MAX TEMP:  78;

*HOUSTON EXEC  SUNNY     79  61  53 S15G25    30.17S
*CLEVELAND MUN PTSUNNY   78  63  59 S12G17    30.18F
6HR MIN TEMP:  55; 6HR MAX TEMP:  79;

*WHARTON       SUNNY     77  62  58 S23       30.17F
6HR MIN TEMP:  60; 6HR MAX TEMP:  77;

*COLUMBUS      FAIR      78  61  55 S16G24    30.15S
6HR MIN TEMP:  56; 6HR MAX TEMP:  78;

$$

TXZ214>216-236>238-291900-
THE UPPER TEXAS COAST

CITY           SKY/WX    TMP DP  RH WIND       PRES   REMARKS
*ORANGE        SUNNY     76  60  56 S16G24    30.23S
6HR MIN TEMP:  63; 6HR MAX TEMP:  76;

PORT ARTHUR    PTSUNNY   79  63  57 S16G23    30.21S
6HR MIN TEMP:  61; 6HR MAX TEMP:  80;

GALVESTON      MOSUNNY   74  66  76 S14       30.21F
6HR MIN TEMP:  64; 6HR MAX TEMP:  75;

ANGLETON       PTSUNNY   74  62  66 S18G30    30.19F
6HR MIN TEMP:  58; 6HR MAX TEMP:  76;

*BAY CITY      CLOUDY    76  65  68 S20       30.18F
PALACIOS       SUNNY     75  65  70 S16G23    30.18S
6HR MIN TEMP:  67; 6HR MAX TEMP:  76;

$$

TXZ229>234-239>247-291900-
TEXAS COASTAL BEND AND RIO GRANDE PLAINS

CITY           SKY/WX    TMP DP  RH WIND       PRES   REMARKS
VICTORIA       SUNNY     78  59  51 S24G30    30.15F
6HR MIN TEMP:  56; 6HR MAX TEMP:  79;

*BEEVILLE      SUNNY     78  63  59 S15G23    30.13F
6HR MIN TEMP:  55; 6HR MAX TEMP:  78;

ROCKPORT       SUNNY     77  63  61 S13G25    30.15F
6HR MIN TEMP:  65; 6HR MAX TEMP:  78;

*PORT ARANSAS  SUNNY     73  66  77 S12G17    30.16S
6HR MIN TEMP:  64; 6HR MAX TEMP:  73;

*PORT LAVACA   SUNNY     77  62  59 S25G35    30.17F
6HR MIN TEMP:  61; 6HR MAX TEMP:  77;

*INGLESIDE     MOSUNNY   78  65  64 S22G29    30.15S
CORPUS CHRISTI MOSUNNY   77  64  64 S26G32    30.13F
6HR MIN TEMP:  60; 6HR MAX TEMP:  77;

CORPUS NAS     SUNNY     77  65  66 S25G35    30.15S
6HR MIN TEMP:  65; 6HR MAX TEMP:  77;

*ROBSTOWN      SUNNY     81  62  53 MISG      30.13F
6HR MIN TEMP:  60; 6HR MAX TEMP:  81;

ALICE          SUNNY     83  59  44 S16G24    30.11F
6HR MIN TEMP:  53; 6HR MAX TEMP:  84;

KINGSVILLE NAS SUNNY     82  62  50 S15G30    30.12F
6HR MIN TEMP:  58; 6HR MAX TEMP:  83;

COTULLA        MOSUNNY   81  57  43 S10       30.09F
6HR MIN TEMP:  56; 6HR MAX TEMP:  81;

*FAITH RANCH   SUNNY     79  57  47 S9        30.08F
LAREDO         SUNNY     81  59  47 SE15      30.10F
6HR MIN TEMP:  59; 6HR MAX TEMP:  81;

$$

TXZ248>255-291900-
DEEP SOUTH TEXAS

CITY           SKY/WX    TMP DP  RH WIND       PRES   REMARKS
BROWNSVILLE    PTSUNNY   78  64  61 S20G35    30.16F
6HR MIN TEMP:  66; 6HR MAX TEMP:  79;

PORT ISABEL    MOSUNNY   79  65  62 S24G30    30.14F
6HR MIN TEMP:  65; 6HR MAX TEMP:  79;

*SOUTH PADRE   SUNNY     73  66  78 SW14      30.17F
HARLINGEN      SUNNY     81  63  54 S24G33    30.13F
6HR MIN TEMP:  65; 6HR MAX TEMP:  81;




USA.gov is the U.S. government's official web portal to all federal, state and local government web resources and services.